Date String (YYYY-MM-DD hh:mm:ss) UTC,Instrument flags,Ambient pressure (hPa),Sample flow (lpm),Bypass flow (lpm),Sample temperature (°C),Ambient temperature (°C),ASC tube jacket temperature (°C),LED temperature (°C),Box temperature (°C),Sample RH (%),Span deviation,Mass concentration (μg/m³),Mass concentration (μg/m³),Mass concentration (μg/m³)
DateTimeUTC,F1_M11,P_M11,Q1_M11,Q2_M11,T1_M11,T2_M11,T3_M11,T4_M11,T5_M11,U1_M11,ZSPAN_M11,X0_M11,X2_M11,X1_M11
2021-10-02 02:00:00,,0830.3,5.00,0.00,30.1,29.3,00.0,39.1,31.9,20.6,0001.9,0012.61,0006.36,0005.76
2021-10-02 02:01:00,,0830.3,5.00,0.00,30.2,29.3,00.0,39.1,32.0,20.4,0001.9,0013.02,0006.33,0005.75
2021-10-02 02:02:00,,0830.3,5.00,0.00,30.2,29.3,00.0,39.1,32.0,20.2,0001.9,0013.22,0006.26,0005.73
2021-10-02 02:03:00,,0830.3,5.01,0.00,30.2,29.2,00.0,39.2,32.0,20.2,0001.9,0013.81,0006.27,0005.73
2021-10-02 02:04:00,,0830.3,5.00,0.00,30.1,27.6,00.0,39.2,31.6,20.3,0002.0,0014.00,0006.30,0005.74
2021-10-02 02:05:00,,0830.2,5.00,0.00,30.0,26.4,00.0,39.1,31.3,20.4,0002.0,0013.35,0006.33,0005.74
2021-10-02 02:06:00,,0830.2,5.00,0.00,29.9,26.5,00.0,39.1,31.3,20.6,0002.1,0012.94,0006.34,0005.75
2021-10-02 02:07:00,,0830.3,4.99,0.00,29.8,26.9,00.0,39.0,31.3,20.7,0002.0,0013.48,0006.35,0005.75
2021-10-02 02:08:00,,0830.3,5.00,0.00,29.8,27.3,00.0,39.0,31.3,20.6,0001.8,0013.87,0006.41,0005.76
2021-10-02 02:09:00,,0830.3,4.98,0.00,29.8,27.7,00.0,39.0,31.4,20.4,0001.7,0013.93,0006.41,0005.76
2021-10-02 02:10:00,,0830.3,5.01,0.00,29.8,27.9,00.0,38.9,31.5,20.2,0001.6,0014.24,0006.39,0005.77
2021-10-02 02:11:00,,0830.4,5.00,0.00,29.8,28.2,00.0,38.9,31.5,20.4,0002.0,0013.15,0006.38,0005.77
2021-10-02 02:12:00,,0830.3,5.00,0.00,29.8,28.3,00.0,38.9,31.6,20.6,0002.2,0012.68,0006.40,0005.77
2021-10-02 02:13:00,,0830.4,5.00,0.00,29.8,28.5,00.0,38.9,31.6,20.6,0002.3,0012.35,0006.43,0005.79
2021-10-02 02:14:00,,0830.4,4.99,0.00,29.8,28.6,00.0,38.9,31.6,20.6,0002.3,0011.76,0006.42,0005.79
2021-10-02 02:15:00,,0830.4,5.00,0.00,29.8,28.7,00.0,38.9,31.6,20.7,0002.1,0011.78,0006.44,0005.80
2021-10-02 02:16:00,,0830.4,5.01,0.00,29.9,28.8,00.0,38.9,31.7,20.8,0002.3,0011.84,0006.46,0005.81
2021-10-02 02:17:00,,0830.4,5.00,0.00,29.9,28.9,00.0,38.9,31.7,20.7,0002.5,0011.80,0006.46,0005.80
2021-10-02 02:18:00,,0830.4,5.01,0.00,29.9,28.9,00.0,39.0,31.7,20.8,0002.6,0011.54,0006.45,0005.81
2021-10-02 02:19:00,,0830.4,5.00,0.00,29.9,29.0,00.0,39.0,31.7,20.8,0002.5,0011.35,0006.42,0005.82
2021-10-02 02:20:00,,0830.4,5.00,0.00,30.0,29.0,00.0,39.0,31.7,20.7,0002.4,0011.44,0006.45,0005.84
2021-10-02 02:21:00,,0830.3,4.99,0.00,30.0,29.1,00.0,39.0,31.8,20.7,0002.4,0011.06,0006.46,0005.84
2021-10-02 02:22:00,,0830.4,5.00,0.00,30.0,29.1,00.0,39.0,31.8,20.7,0002.1,0011.02,0006.44,0005.85
2021-10-02 02:23:00,,0830.4,5.01,0.00,30.0,29.1,00.0,39.0,31.8,20.7,0001.7,0011.36,0006.45,0005.86
2021-10-02 02:24:00,,0830.4,4.99,0.00,30.1,29.2,00.0,39.0,31.9,20.7,0001.4,0011.27,0006.44,0005.87
2021-10-02 02:25:00,,0830.5,5.00,0.00,30.1,29.2,00.0,39.1,31.9,20.6,0001.4,0011.31,0006.46,0005.86
2021-10-02 02:26:00,,0830.5,5.01,0.00,30.1,29.2,00.0,39.1,31.9,20.5,0001.5,0011.22,0006.45,0005.86
2021-10-02 02:27:00,,0830.5,4.99,0.00,30.1,29.3,00.0,39.1,32.0,20.5,0001.4,0011.21,0006.43,0005.86
2021-10-02 02:28:00,,0830.5,5.01,0.00,30.1,29.3,00.0,39.1,32.0,20.5,0001.1,0011.44,0006.44,0005.87
2021-10-02 02:29:00,,0830.5,4.99,0.00,30.2,29.3,00.0,39.1,32.0,20.5,0001.0,0011.67,0006.43,0005.88
2021-10-02 02:30:00,,0830.5,5.00,0.00,30.2,29.3,00.0,39.2,32.0,20.4,0001.2,0012.15,0006.46,0005.90
2021-10-02 02:31:00,,0830.5,5.00,0.00,30.2,29.3,00.0,39.2,32.0,20.3,0001.4,0012.10,0006.47,0005.89
2021-10-02 02:32:00,,0830.5,5.00,0.00,30.2,29.4,00.0,39.2,32.0,20.2,0001.5,0012.54,0006.45,0005.90
2021-10-02 02:33:00,,0830.5,5.00,0.00,30.3,29.4,00.0,39.2,32.0,20.2,0001.6,0012.60,0006.46,0005.91
2021-10-02 02:34:00,,0830.5,5.01,0.00,30.2,28.4,00.0,39.2,31.8,20.4,0001.5,0013.13,0006.47,0005.92
2021-10-02 02:35:00,,0830.5,5.00,0.00,30.1,26.5,00.0,39.2,31.3,20.7,0001.8,0013.80,0006.48,0005.93
2021-10-02 02:36:00,,0830.5,5.00,0.00,29.9,26.3,00.0,39.2,31.2,20.8,0002.0,0013.91,0006.52,0005.95
2021-10-02 02:37:00,,0830.5,4.99,0.00,29.9,26.7,00.0,39.1,31.3,21.0,0001.9,0013.93,0006.53,0005.97
2021-10-02 02:38:00,,0830.5,5.00,0.00,29.8,27.1,00.0,39.1,31.3,21.1,0001.9,0014.03,0006.54,0005.98
2021-10-02 02:39:00,,0830.5,5.00,0.00,29.8,27.5,00.0,39.0,31.4,21.1,0002.1,0014.18,0006.56,0005.99
2021-10-02 02:40:00,,0830.5,5.00,0.00,29.8,27.8,00.0,39.0,31.4,21.2,0002.4,0013.79,0006.59,0006.00
2021-10-02 02:41:00,,0830.5,5.00,0.00,29.8,28.0,00.0,39.0,31.5,21.2,0002.4,0013.17,0006.58,0005.99
2021-10-02 02:42:00,,0830.6,4.99,0.00,29.8,28.2,00.0,39.0,31.5,21.3,0002.2,0013.81,0006.59,0005.99
2021-10-02 02:43:00,,0830.6,4.99,0.00,29.8,28.4,00.0,39.0,31.5,21.3,0001.8,0013.40,0006.62,0005.99
2021-10-02 02:44:00,,0830.6,5.01,0.00,29.8,28.5,00.0,39.0,31.6,21.2,0001.8,0013.40,0006.60,0005.99
2021-10-02 02:45:00,,0830.6,5.00,0.00,29.9,28.6,00.0,39.0,31.6,21.1,0002.1,0012.54,0006.61,0006.00
2021-10-02 02:46:00,,0830.6,4.99,0.00,29.9,28.7,00.0,39.0,31.7,21.2,0002.3,0011.86,0006.63,0006.00
2021-10-02 02:47:00,,0830.6,5.00,0.00,29.9,28.8,00.0,39.0,31.7,21.1,0002.1,0011.73,0006.60,0006.00
2021-10-02 02:48:00,,0830.6,5.00,0.00,29.9,28.9,00.0,39.0,31.7,21.1,0002.1,0012.06,0006.61,0005.99
2021-10-02 02:49:00,,0830.6,4.99,0.00,30.0,28.9,00.0,39.0,31.7,21.1,0002.3,0011.97,0006.61,0005.98
2021-10-02 02:50:00,,0830.5,4.99,0.00,30.0,29.0,00.0,39.0,31.8,21.1,0002.2,0011.84,0006.60,0005.97
2021-10-02 02:51:00,,0830.5,5.01,0.00,30.0,29.0,00.0,39.0,31.8,21.0,0002.1,0011.98,0006.61,0005.97
2021-10-02 02:52:00,,0830.6,4.99,0.00,30.0,29.0,00.0,39.0,31.8,21.0,0002.2,0011.89,0006.62,0005.98
2021-10-02 02:53:00,,0830.6,4.99,0.00,30.0,29.1,00.0,39.0,31.8,21.0,0002.1,0011.36,0006.62,0005.97
2021-10-02 02:54:00,,0830.6,5.00,0.00,30.1,29.1,00.0,39.0,31.9,21.0,0002.4,0011.62,0006.62,0005.98
2021-10-02 02:55:00,,0830.5,5.00,0.00,30.1,29.1,00.0,39.1,31.9,21.0,0002.4,0011.92,0006.65,0005.99
2021-10-02 02:56:00,,0830.6,5.00,0.00,30.1,29.2,00.0,39.1,31.9,21.0,0002.5,0012.42,0006.61,0005.98
2021-10-02 02:57:00,,0830.6,5.01,0.00,30.1,29.2,00.0,39.1,31.9,21.0,0002.2,0012.47,0006.61,0005.98
2021-10-02 02:58:00,,0830.6,5.00,0.00,30.1,29.2,00.0,39.1,32.0,21.0,0002.1,0012.65,0006.62,0005.99
2021-10-02 02:59:00,,0830.6,5.01,0.00,30.2,29.3,00.0,39.1,32.0,21.0,0002.0,0012.86,0006.60,0006.00
